FW8645 Weather Reports


Display with metric or nautical units.
time (UTC)temp
F
wind
direction
speed
MPH
gust
MPH
rain 1hr
in
rain 24hr
in
rain mn
in
humidity
%
barometer
mb
20260507010852 59 256 6.0 14.0 0.01 0.22 0.22 93 1003.9
20260507010325 59 238 5.0 11.0 0.00 0.21 0.21 93 1004.0
20260507005816 59 275 6.0 13.0 0.00 0.21 0.21 93 1004.0
20260507005315 59 280 4.0 9.0 0.00 0.21 0.21 92 1003.9
20260507004847 59 251 3.0 10.0 0.00 0.21 0.21 92 1003.8
20260507004318 59 240 5.0 10.0 0.00 0.21 0.21 92 1003.8
20260507003829 59 238 4.0 10.0 0.00 0.21 0.21 92 1003.7
20260507003321 59 249 5.0 13.0 0.00 0.21 0.21 92 1003.7
20260507002815 59 250 4.0 13.0 0.00 0.21 0.21 92 1003.7
20260507002331 59 227 5.0 12.0 0.00 0.21 0.21 92 1003.6
20260507001825 59 237 4.0 13.0 0.00 0.21 0.21 92 1003.5
20260507001321 60 235 6.0 13.0 0.00 0.21 0.21 92 1003.6
20260507000832 60 249 8.0 14.0 0.00 0.21 0.21 92 1003.5
20260507000321 60 238 6.0 14.0 0.00 0.21 0.21 91 1003.5
20260506235812 60 228 5.0 14.0 0.00 0.21 0.21 91 1003.5
20260506235327 60 235 4.0 15.0 0.00 0.21 0.21 91 1003.4
20260506234823 60 195 6.0 15.0 0.00 0.21 0.21 91 1003.3
20260506234318 60 251 5.0 13.0 0.00 0.21 0.21 91 1003.3
20260506233833 60 235 3.0 14.0 0.00 0.21 0.21 91 1003.3
20260506233347 60 221 7.0 14.0 0.00 0.21 0.21 91 1003.4
20260506232822 60 225 4.0 13.0 0.00 0.21 0.21 91 1003.3
20260506232341 60 232 5.0 13.0 0.00 0.23 0.21 90 1003.3
20260506231816 60 242 6.0 19.0 0.00 0.23 0.21 90 1003.4
20260506231313 60 222 4.0 19.0 0.00 0.23 0.21 90 1003.3
20260506230827 60 249 7.0 14.0 0.00 0.23 0.21 90 1003.4
20260506230323 60 223 8.0 14.0 0.00 0.23 0.21 90 1003.4
20260506225819 60 223 5.0 13.0 0.00 0.23 0.21 91 1003.4
20260506225314 60 218 9.0 16.0 0.00 0.23 0.21 91 1003.5
20260506224813 61 230 6.0 16.0 0.00 0.23 0.21 91 1003.5
20260506224328 61 225 9.0 13.0 0.00 0.23 0.21 91 1003.5
20260506223844 61 232 4.0 16.0 0.00 0.23 0.21 91 1003.5
20260506223318 61 240 4.0 15.0 0.00 0.23 0.21 91 1003.6
20260506222814 61 234 5.0 10.0 0.00 0.23 0.21 91 1003.6
20260506222329 61 233 5.0 11.0 0.00 0.23 0.21 91 1003.6
20260506221845 61 241 2.0 11.0 0.00 0.23 0.21 91 1003.5
20260506221318 61 229 6.0 12.0 0.00 0.23 0.21 92 1003.5
20260506220813 61 229 3.0 14.0 0.00 0.23 0.21 92 1003.7
20260506220313 61 264 6.0 14.0 0.00 0.23 0.21 92 1003.8
20260506215846 61 247 1.0 9.0 0.00 0.23 0.21 92 1003.7
20260506215320 61 237 2.0 11.0 0.00 0.23 0.21 92 1003.7
20260506214816 61 238 3.0 15.0 0.00 0.23 0.21 92 1003.7
20260506214332 61 210 5.0 15.0 0.00 0.23 0.21 92 1003.8
20260506213827 61 237 4.0 11.0 0.00 0.23 0.21 92 1003.8
20260506213323 61 228 6.0 11.0 0.01 0.23 0.21 92 1003.9
20260506212819 61 254 3.0 12.0 0.01 0.23 0.21 92 1004.0
20260506212318 61 230 5.0 12.0 0.01 0.23 0.21 92 1004.1
20260506211813 61 229 4.0 11.0 0.03 0.23 0.21 92 1004.2
20260506211328 61 233 2.0 12.0 0.05 0.23 0.21 92 1004.2
20260506210824 61 240 5.0 12.0 0.05 0.23 0.21 92 1004.2
20260506210320 61 248 4.0 10.0 0.06 0.23 0.21 93 1004.3
20260506205815 61 252 3.0 7.0 0.07 0.23 0.21 93 1004.3
20260506205331 61 250 2.0 9.0 0.08 0.23 0.21 93 1004.4
20260506204831 60 249 4.0 9.0 0.08 0.23 0.21 93 1004.4
20260506204326 60 248 1.0 3.0 0.09 0.23 0.21 93 1004.5
20260506203820 60 249 2.0 5.0 0.09 0.23 0.21 93 1004.6
20260506203315 60 228 2.0 6.0 0.08 0.22 0.20 93 1004.6
20260506202831 60 237 1.0 4.0 0.08 0.22 0.20 93 1004.7
20260506202327 60 236 1.0 6.0 0.08 0.22 0.20 93 1004.7
20260506201823 61 237 1.0 4.0 0.06 0.20 0.18 93 1004.7
20260506201339 61 257 2.0 6.0 0.04 0.18 0.16 93 1004.8
20260506200838 61 233 2.0 6.0 0.04 0.18 0.16 93 1004.7
20260506200331 61 234 1.0 7.0 0.03 0.17 0.15 92 1004.6
20260506195827 61 240 2.0 7.0 0.02 0.16 0.14 92 1004.7
20260506195323 61 238 2.0 6.0 0.01 0.15 0.13 92 1004.7
20260506194819 61 225 2.0 11.0 0.01 0.15 0.13 92 1004.8
20260506194315 61 233 3.0 9.0 0.00 0.14 0.12 92 1004.7
20260506193832 61 226 4.0 10.0 0.00 0.14 0.12 92 1004.8
20260506193312 61 239 4.0 11.0 0.01 0.14 0.12 92 1005.1
20260506192829 61 242 7.0 11.0 0.02 0.14 0.12 92 1005.3
20260506192326 61 227 4.0 14.0 0.02 0.14 0.12 92 1005.2
20260506191823 61 249 5.0 14.0 0.03 0.14 0.12 92 1005.2
20260506191339 61 237 3.0 10.0 0.04 0.14 0.12 92 1005.3
20260506190814 61 241 6.0 11.0 0.05 0.14 0.12 91 1005.4
20260506190331 61 259 4.0 12.0 0.05 0.14 0.12 92 1005.5
20260506185827 61 244 4.0 8.0 0.06 0.14 0.12 92 1005.4
20260506185327 61 234 4.0 9.0 0.07 0.14 0.12 91 1005.3
20260506184823 61 237 4.0 9.0 0.07 0.14 0.12 92 1005.3
20260506184319 61 237 3.0 8.0 0.08 0.14 0.12 91 1005.4
20260506183814 61 236 3.0 8.0 0.08 0.14 0.12 91 1005.6
20260506183330 62 245 4.0 8.0 0.08 0.13 0.11 91 1005.6
20260506182827 62 228 5.0 9.0 0.08 0.12 0.10 91 1005.7
20260506182324 62 247 4.0 9.0 0.08 0.12 0.10 91 1005.6
20260506181825 62 235 5.0 8.0 0.08 0.11 0.09 90 1005.8
20260506181322 62 234 4.0 8.0 0.08 0.10 0.08 91 1006.0
20260506180817 62 240 1.0 8.0 0.07 0.09 0.07 90 1006.0
20260506180312 62 243 2.0 4.0 0.07 0.09 0.07 90 1005.9
20260506175828 62 237 2.0 4.0 0.06 0.08 0.06 90 1006.0
20260506175343 62 242 2.0 4.0 0.05 0.07 0.05 89 1006.1
20260506174838 62 244 2.0 8.0 0.05 0.07 0.05 88 1006.0
20260506174333 63 234 2.0 7.0 0.04 0.06 0.04 87 1006.1
20260506173828 63 257 2.0 7.0 0.04 0.06 0.04 86 1005.9
20260506173328 63 263 2.0 7.0 0.03 0.05 0.03 85 1006.0
20260506172824 64 230 4.0 7.0 0.02 0.04 0.02 83 1006.0
20260506172340 65 244 2.0 7.0 0.02 0.04 0.02 81 1005.8
20260506171815 65 240 2.0 9.0 0.01 0.03 0.01 79 1005.8
20260506171332 66 235 5.0 14.0 0.00 0.02 0.00 75 1005.8
20260506170828 67 232 7.0 14.0 0.00 0.02 0.00 73 1005.7
20260506170323 67 240 4.0 8.0 0.00 0.02 0.00 72 1005.7
20260506165819 67 235 3.0 8.0 0.00 0.02 0.00 72 1005.7
20260506165319 67 238 5.0 8.0 0.00 0.02 0.00 72 1005.8
20260506164836 67 244 2.0 10.0 0.00 0.02 0.00 73 1005.9
20260506164351 66 228 2.0 10.0 0.00 0.02 0.00 74 1005.9
20260506163825 66 247 2.0 9.0 0.00 0.02 0.00 74 1005.9
20260506163321 66 235 1.0 6.0 0.00 0.02 0.00 75 1006.1
20260506162817 66 227 2.0 5.0 0.00 0.02 0.00 75 1006.3
20260506162313 66 233 2.0 4.0 0.00 0.02 0.00 75 1006.4
20260506161849 66 258 1.0 4.0 0.00 0.02 0.00 75 1006.6
20260506161344 65 235 1.0 8.0 0.00 0.02 0.00 76 1006.9
20260506160822 65 237 1.0 8.0 0.00 0.02 0.00 75 1007.1
20260506160318 65 237 1.0 5.0 0.00 0.02 0.00 76 1007.3
20260506155814 65 237 2.0 5.0 0.00 0.02 0.00 75 1007.3
20260506155330 65 233 1.0 2.0 0.00 0.02 0.00 76 1007.5
20260506154826 64 233 0.0 5.0 0.00 0.02 0.00 77 1007.5
20260506154342 64 233 1.0 5.0 0.00 0.02 0.00 76 1007.5
20260506153837 64 240 1.0 5.0 0.00 0.02 0.00 76 1007.7
20260506153312 64 245 2.0 7.0 0.00 0.02 0.00 76 1007.7
20260506152812 64 237 3.0 8.0 0.00 0.02 0.00 76 1007.7
20260506152349 64 239 5.0 8.0 0.00 0.02 0.00 76 1007.8
20260506151824 64 233 4.0 7.0 0.00 0.02 0.00 76 1007.7
20260506151320 64 233 3.0 6.0 0.00 0.02 0.00 76 1007.6
20260506150816 64 235 3.0 6.0 0.00 0.02 0.00 76 1007.6
20260506150312 64 233 2.0 11.0 0.00 0.02 0.00 76 1007.7
20260506145848 64 240 6.0 11.0 0.00 0.02 0.00 76 1007.7
20260506145323 64 228 4.0 11.0 0.00 0.02 0.00 76 1007.8
20260506144819 64 249 2.0 7.0 0.00 0.02 0.00 77 1007.7
20260506144319 64 239 2.0 10.0 0.00 0.02 0.00 76 1007.5
20260506143814 63 240 5.0 10.0 0.00 0.02 0.00 76 1007.6
20260506143330 63 252 4.0 9.0 0.00 0.02 0.00 77 1007.7
20260506142846 63 240 2.0 7.0 0.00 0.02 0.00 77 1007.5
20260506142321 63 261 4.0 8.0 0.00 0.02 0.00 77 1007.5
20260506141817 63 236 3.0 11.0 0.00 0.02 0.00 78 1007.4
20260506141313 63 239 4.0 11.0 0.00 0.02 0.00 78 1007.4
20260506140849 62 241 5.0 9.0 0.00 0.02 0.00 77 1007.4
20260506140328 62 229 3.0 9.0 0.00 0.02 0.00 78 1007.6
20260506135843 62 247 4.0 9.0 0.00 0.02 0.00 78 1007.6
20260506135318 62 237 6.0 9.0 0.00 0.02 0.00 78 1007.8
20260506134814 62 218 5.0 9.0 0.00 0.02 0.00 77 1007.9
20260506134330 62 244 6.0 9.0 0.00 0.02 0.00 78 1007.8
20260506133826 62 233 2.0 11.0 0.00 0.02 0.00 78 1007.8
20260506133342 62 241 4.0 11.0 0.00 0.02 0.00 78 1007.9
20260506132817 62 252 5.0 12.0 0.00 0.02 0.00 77 1007.9
20260506132315 62 230 6.0 12.0 0.00 0.02 0.00 77 1007.9
20260506131831 62 233 2.0 10.0 0.00 0.02 0.00 78 1007.8
20260506131327 62 261 5.0 9.0 0.00 0.02 0.00 77 1007.8
20260506130823 62 231 5.0 9.0 0.00 0.02 0.00 78 1007.9
20260506130318 62 231 4.0 9.0 0.00 0.02 0.00 78 1008.1
20260506125834 62 233 3.0 7.0 0.00 0.02 0.00 78 1008.2
20260506125349 62 250 4.0 10.0 0.00 0.02 0.00 78 1008.0
20260506124824 62 231 6.0 11.0 0.00 0.02 0.00 78 1007.8
20260506124320 62 241 5.0 11.0 0.00 0.02 0.00 78 1007.8
20260506123820 62 230 2.0 8.0 0.00 0.02 0.00 79 1007.7
20260506123336 61 235 3.0 12.0 0.00 0.02 0.00 78 1007.9
20260506122831 61 231 4.0 12.0 0.00 0.02 0.00 78 1007.9
20260506122327 61 247 8.0 12.0 0.00 0.02 0.00 77 1008.1
20260506121823 62 252 5.0 9.0 0.00 0.02 0.00 77 1008.0
20260506121319 61 235 4.0 7.0 0.00 0.02 0.00 77 1008.0
20260506120816 61 227 3.0 6.0 0.00 0.02 0.00 78 1008.1
20260506120352 61 260 2.0 5.0 0.00 0.02 0.00 78 1008.1
20260506115832 61 251 1.0 10.0 0.00 0.02 0.00 78 1008.1
20260506115328 61 237 1.0 10.0 0.00 0.02 0.00 78 1008.0
20260506114824 61 235 2.0 8.0 0.00 0.02 0.00 79 1008.3
20260506114319 60 249 1.0 10.0 0.00 0.02 0.00 80 1008.3
20260506113816 60 230 1.0 10.0 0.00 0.02 0.00 79 1008.0
20260506113331 60 237 4.0 8.0 0.00 0.02 0.00 80 1008.2
20260506112827 60 240 4.0 8.0 0.00 0.02 0.00 80 1008.1
20260506112327 59 238 2.0 6.0 0.00 0.02 0.00 80 1008.1
20260506111822 59 264 2.0 5.0 0.00 0.02 0.00 81 1008.3
20260506111317 59 234 0.0 6.0 0.00 0.02 0.00 82 1008.3
20260506110832 58 234 1.0 6.0 0.00 0.02 0.00 83 1008.4
20260506110328 57 237 1.0 5.0 0.00 0.02 0.00 84 1008.4
20260506105823 57 233 1.0 5.0 0.00 0.02 0.00 86 1008.8
20260506105318 56 218 0.0 2.0 0.00 0.02 0.00 86 1008.5
20260506104853 56 218 0.0 2.0 0.00 0.02 0.00 88 1008.5
20260506104332 55 218 0.0 1.0 0.00 0.02 0.00 90 1008.5
20260506103827 54 218 0.0 1.0 0.00 0.02 0.00 91 1008.6
20260506102845 53 218 0.0 0.0 0.00 0.02 0.00 91 1008.3
20260506102318 53 218 0.0 1.0 0.00 0.02 0.00 91 1008.3
20260506101812 53 218 0.0 0.0 0.00 0.02 0.00 91 1008.3
20260506101325 53 218 0.0 0.0 0.00 0.02 0.00 90 1008.2
20260506100823 53 218 0.0 1.0 0.00 0.02 0.00 90 1008.2
20260506100314 53 218 0.0 1.0 0.00 0.02 0.00 89 1008.3
20260506095809 53 218 0.0 1.0 0.00 0.02 0.00 89 1008.0
20260506095344 54 218 0.0 0.0 0.00 0.02 0.00 88 1007.9
20260506094819 54 218 0.0 0.0 0.00 0.02 0.00 88 1007.9
20260506094315 54 218 0.0 0.0 0.00 0.02 0.00 88 1008.1
20260506093812 54 218 0.0 0.0 0.00 0.02 0.00 87 1008.2
20260506093327 55 218 0.0 1.0 0.00 0.02 0.00 86 1007.9
20260506092828 55 218 0.0 1.0 0.00 0.02 0.00 87 1008.0
20260506092324 55 218 0.0 0.0 0.00 0.02 0.00 86 1008.1
20260506091821 55 218 0.0 0.0 0.00 0.02 0.00 86 1008.0
20260506091317 55 218 0.0 0.0 0.00 0.02 0.00 85 1008.1
20260506090812 55 218 0.0 0.0 0.00 0.02 0.00 84 1008.1
20260506090328 56 218 0.0 0.0 0.00 0.02 0.00 83 1008.1
20260506085824 57 218 0.0 1.0 0.00 0.02 0.00 82 1008.0
20260506085323 57 218 0.0 1.0 0.00 0.02 0.00 83 1008.1
20260506084820 57 218 0.0 2.0 0.00 0.02 0.00 82 1008.1
20260506084317 57 218 0.0 2.0 0.00 0.02 0.00 81 1008.0
20260506083814 58 218 0.0 3.0 0.00 0.02 0.00 80 1008.0
20260506083350 58 255 1.0 2.0 0.00 0.02 0.00 79 1008.0
20260506082824 59 255 1.0 2.0 0.00 0.02 0.00 77 1008.1
20260506082321 60 254 1.0 5.0 0.00 0.02 0.00 76 1008.1
20260506081837 60 247 1.0 4.0 0.00 0.02 0.00 76 1008.0
20260506081315 60 266 3.0 6.0 0.00 0.02 0.00 75 1007.8
20260506080811 60 264 1.0 4.0 0.00 0.02 0.00 76 1008.0
20260506080327 60 240 1.0 4.0 0.00 0.02 0.00 76 1008.0
20260506073328 60 228 1.0 3.0 0.00 0.02 0.00 75 1007.9
20260506072845 60 262 1.0 2.0 0.00 0.02 0.00 75 1008.0
20260506072320 60 262 0.0 2.0 0.00 0.02 0.00 75 1008.0
20260506071837 60 262 0.0 2.0 0.00 0.02 0.00 74 1007.9
20260506071313 61 262 0.0 2.0 0.00 0.02 0.00 74 1007.9
20260506070829 61 262 0.0 2.0 0.00 0.02 0.00 73 1007.8
20260506070327 61 262 0.0 4.0 0.00 0.02 0.00 73 1007.7
20260506062317 61 241 3.0 9.0 0.00 0.02 0.00 74 1007.3
20260506061815 61 250 4.0 7.0 0.00 0.02 0.00 74 1007.2
20260506061316 61 255 2.0 6.0 0.00 0.02 0.00 75 1007.3
20260506060831 61 261 1.0 9.0 0.00 0.02 0.00 75 1007.3
20260506060326 61 235 4.0 9.0 0.00 0.02 0.00 75 1007.3
20260506051314 62 238 4.0 10.0 0.00 0.02 0.00 77 1007.5
20260506050810 62 258 4.0 10.0 0.00 0.02 0.00 78 1007.6
20260506050310 62 239 5.0 10.0 0.00 0.02 0.00 78 1007.5
20260506044819 61 233 3.0 7.0 0.00 0.02 0.00 82 1007.6
20260506044315 60 236 1.0 3.0 0.00 0.02 0.00 83 1007.6
20260506043811 60 236 1.0 2.0 0.00 0.02 0.00 83 1007.6
20260506043348 61 236 0.0 1.0 0.00 0.02 0.00 81 1007.5
20260506042825 61 236 0.0 1.0 0.00 0.02 0.00 80 1007.5
20260506042325 62 236 0.0 1.0 0.00 0.02 0.00 80 1007.5
20260506041821 62 236 0.0 2.0 0.00 0.02 0.00 80 1007.6
20260506041318 62 236 1.0 4.0 0.00 0.02 0.00 80 1007.7
20260506040813 62 236 2.0 4.0 0.00 0.02 0.00 80 1007.7
20260506040329 62 236 1.0 4.0 0.00 0.02 0.00 80 1007.6
20260506035824 61 236 1.0 5.0 0.00 0.02 0.00 81 1007.4
20260506035340 61 236 2.0 4.0 0.00 0.02 0.00 82 1007.3
20260506034814 60 238 2.0 6.0 0.00 0.02 0.00 84 1007.5
20260506034314 59 240 3.0 6.0 0.00 0.02 0.00 86 1007.7
20260506033810 58 233 2.0 4.0 0.00 0.02 0.00 89 1007.7
20260506033327 58 233 0.0 2.0 0.00 0.02 0.00 91 1007.6
20260506032824 57 233 0.0 1.0 0.00 0.02 0.00 90 1007.7
20260506032321 57 233 0.0 1.0 0.00 0.02 0.02 91 1007.6
20260506031818 57 233 0.0 1.0 0.00 0.02 0.02 90 1007.6
20260506031315 57 233 0.0 1.0 0.00 0.02 0.02 90 1007.5
20260506030816 57 233 0.0 0.0 0.00 0.02 0.02 90 1007.3
20260506030313 57 233 0.0 0.0 0.00 0.02 0.02 90 1007.2
20260506025850 58 233 0.0 1.0 0.00 0.02 0.02 89 1007.3
20260506025345 58 233 0.0 1.0 0.00 0.02 0.02 89 1007.4
20260506024821 59 233 0.0 1.0 0.00 0.02 0.02 88 1007.4
20260506024338 59 233 0.0 1.0 0.00 0.02 0.02 86 1007.3
20260506023833 60 233 0.0 1.0 0.00 0.02 0.02 84 1007.2
20260506023329 61 233 0.0 2.0 0.00 0.02 0.02 83 1007.3
20260506022846 61 233 0.0 2.0 0.00 0.02 0.02 81 1007.4
20260506022322 62 233 0.0 1.0 0.00 0.02 0.02 80 1007.5
20260506021822 62 233 0.0 3.0 0.00 0.02 0.02 80 1007.5
20260506021339 62 233 0.0 3.0 0.00 0.02 0.02 79 1007.6
20260506020834 63 233 1.0 1.0 0.00 0.02 0.02 79 1007.6
20260506020330 63 233 0.0 2.0 0.00 0.02 0.02 78 1007.6
20260506015846 63 233 0.0 2.0 0.00 0.02 0.02 76 1007.6
20260506015321 63 233 1.0 2.0 0.00 0.02 0.02 75 1007.8
20260506014818 64 233 1.0 5.0 0.00 0.02 0.02 74 1007.9
20260506014313 64 233 2.0 5.0 0.00 0.02 0.02 74 1007.8
20260506013812 64 233 2.0 4.0 0.00 0.02 0.02 75 1007.9
20260506013348 64 233 0.0 5.0 0.00 0.02 0.02 75 1007.7
20260506012822 63 233 3.0 5.0 0.00 0.02 0.02 75 1007.7
20260506012318 63 232 2.0 4.0 0.00 0.02 0.02 76 1007.7
20260506011814 63 232 1.0 6.0 0.00 0.02 0.02 77 1007.7
20260506011310 63 233 3.0 6.0 0.00 0.02 0.02 78 1007.6